Lovelock, NV

1:32 AM PDT on June 29, 2017 (GMT -0700)
Derby

Weather History for KLOL - March, 2013

Change the Weather History Date:

Tuesday, March 5, 2013

  Actual Average Record
Temperature  
Mean Temperature 41 °F -  
Max Temperature 64 °F 54 °F 76 °F (1972)
Min Temperature 18 °F 25 °F 5 °F (1971)
Degree Days  
Heating Degree Days 24    
Moisture  
Dew Point 23 °F    
Average Humidity 55    
Maximum Humidity 92    
Minimum Humidity 18    
Precipitation  
Precipitation 0.00 in - - ()
Sea Level Pressure  
Sea Level Pressure 29.88 in    
Wind  
Wind Speed 6 mph (SSW)    
Max Wind Speed 15 mph    
Max Gust Speed 21 mph    
Visibility 10 miles    
Events      
Averages and records for this station are not official NWS values.
T = Trace of Precipitation, MM = Missing Value Source: NWS Daily Summary

Daily Weather History Graph

Daily Weather History Graph

Search for Another Location

Airport or City:

Trip Planner

Search our weather history database for the weather conditions in past years. The results will help you decide how hot, cold, wet, or windy it might be!

Date:

Astronomy

Mar. 05, 2013 Rise Set
Actual Time 6:21 AM PST 5:50 PM PST
Civil Twilight 5:53 AM PST 6:17 PM PST
Nautical Twilight 5:22 AM PST 6:49 PM PST
Astronomical Twilight 4:51 AM PST 7:20 PM PST
Moon 1:38 AM PST (3/5) 11:34 AM PST (3/5)
Length of Visible Light 12h 24m
Length of Day
11h 29m
Last Quarter, 39% of the Moon is Illuminated
Mar 5
Last Quarter
Mar 11
New
Mar 19
First Quarter
Mar 27
Full
Apr 2
Last Quarter

Hourly Weather History & Observations

Time (PST) Temp. Windchill Dew Point Humidity Pressure Visibility Wind Dir Wind Speed Gust Speed Precip Events Conditions
12:53 AM 32.0 °F 25.6 °F 26.1 °F 79% 30.03 in 10.0 mi WNW 6.9 mph - N/A   Clear
1:53 AM 23.0 °F 15.8 °F 19.9 °F 88% 30.04 in 10.0 mi SE 5.8 mph - N/A   Clear
2:53 AM 21.0 °F 16.2 °F 17.1 °F 85% 30.03 in 10.0 mi SW 3.5 mph - N/A   Clear
3:53 AM 25.0 °F - 21.9 °F 88% 30.02 in 10.0 mi Calm Calm - N/A   Clear
5:53 AM 18.0 °F 11.1 °F 16.0 °F 92% 30.04 in 10.0 mi ESE 4.6 mph - N/A   Clear
6:53 AM 18.0 °F - 15.1 °F 88% 30.05 in 10.0 mi Calm Calm - N/A   Clear
7:53 AM 28.0 °F - 24.1 °F 85% 30.04 in 10.0 mi Calm Calm - N/A   Clear
8:53 AM 39.0 °F 34.8 °F 30.0 °F 70% 30.03 in 10.0 mi East 5.8 mph - N/A   Clear
9:53 AM 45.0 °F 43.5 °F 32.0 °F 60% 30.00 in 10.0 mi ENE 3.5 mph - N/A   Clear
10:53 AM 52.0 °F - 30.9 °F 45% 29.96 in 10.0 mi Calm Calm - N/A   Clear
11:53 AM 55.0 °F - 28.9 °F 37% 29.91 in 10.0 mi WSW 6.9 mph 17.3 mph N/A   Clear
12:53 PM 59.0 °F - 26.1 °F 28% 29.84 in 10.0 mi WSW 10.4 mph - N/A   Clear
1:53 PM 62.1 °F - 24.1 °F 23% 29.81 in 10.0 mi SSW 10.4 mph 20.7 mph N/A   Clear
2:53 PM 64.0 °F - 21.9 °F 20% 29.77 in 10.0 mi South 11.5 mph - N/A   Clear
3:53 PM 64.9 °F - 21.9 °F 19% 29.73 in 10.0 mi SW 15.0 mph - N/A   Clear
4:53 PM 64.0 °F - 19.9 °F 18% 29.70 in 10.0 mi SSW 15.0 mph - N/A   Clear
5:53 PM 54.0 °F - 23.0 °F 30% 29.74 in 10.0 mi SW 6.9 mph - N/A   Clear
6:53 PM 53.1 °F - 23.0 °F 31% 29.75 in 10.0 mi West 9.2 mph - N/A   Clear
7:53 PM 48.9 °F - 24.1 °F 38% 29.75 in 10.0 mi SW 6.9 mph - N/A   Clear
8:53 PM 39.0 °F 34.0 °F 21.9 °F 50% 29.76 in 10.0 mi South 6.9 mph - N/A   Clear
9:53 PM 37.0 °F - 23.0 °F 57% 29.75 in 10.0 mi Calm Calm - N/A   Clear
10:53 PM 30.9 °F 27.5 °F 21.0 °F 67% 29.74 in 10.0 mi West 3.5 mph - N/A   Clear
11:53 PM 30.0 °F 22.4 °F 19.9 °F 66% 29.72 in 10.0 mi SE 8.1 mph - N/A   Clear